SCP
1 1 1 1 0 0 0 0 0 0 0 0 0 0 0 0 0 0 0 0 0 0 0 0 0 0 0 0 0 0 0 0 0 0 0 0 0 0 0 0 0 0 0
1 1 1 1 0 0 0 0 0 0 0 0 0 0 0 0 0 0 0 0 0 0 0 0 0 0 0 0 0 0 0 0 0 0 0 0 0 0 0 0 0 0 0
1 1 1 1 1 0 0 0 0 0 0 0 0 0 0 0 0 0 0 0 0 0 0 0 0 0 0 0 0 0 0 0 0 0 0 0 0 0 0 0 0 0 0
1 1 1 1 1 0 0 0 0 0 0 0 0 0 0 0 0 0 0 0 0 0 0 0 0 0 0 0 0 0 0 0 0 0 0 0 0 0 0 0 0 0 0
1 1 1 1 1 1 0 0 0 0 0 0 0 0 0 0 0 0 0 0 0 0 0 0 0 0 0 0 0 0 0 0 0 0 0 0 0 1 1 0 0 0 0
1 1 1 1 1 1 1 0 0 0 0 0 0 0 0 0 0 0 0 0 0 0 0 0 0 0 0 0 0 0 0 0 0 0 0 0 0 1 1 1 0 0 0
1 1 1 1 1 1 1 1 1 0 0 0 0 0 0 0 0 0 0 0 0 0 0 0 0 0 0 0 0 0 0 0 0 0 0 0 1 1 1 1 0 0 0
1 1 1 1 1 1 1 1 1 1 1 0 0 0 0 0 0 0 0 0 0 0 0 0 0 0 0 0 0 0 0 0 0 0 0 0 1 1 1 1 1 1 0
1 1 1 1 1 1 1 1 1 1 1 1 1 1 0 0 0 0 0 0 0 0 0 0 0 0 0 0 0 0 0 0 0 0 0 0 1 1 1 1 1 1 1
1 1 1 1 1 1 1 1 1 1 1 1 1 1 0 0 0 0 0 0 0 0 0 0 0 0 0 0 0 0 0 0 0 0 0 1 1 1 1 1 1 1 1
1 1 1 1 1 1 1 1 1 1 1 1 1 1 1 0 0 0 0 0 0 0 0 0 0 0 0 0 0 0 0 0 0 0 0 1 1 1 1 1 1 1 1
1 1 1 1 1 1 1 1 1 1 1 1 1 1 1 1 0 0 1 1 1 0 0 0 0 0 0 0 0 0 0 0 0 0 0 1 1 1 1 1 1 1 1
1 1 1 2 2 2 1 1 1 1 1 1 1 1 1 1 1 1 1 1 1 1 0 0 0 0 0 0 0 0 0 0 0 0 1 1 1 1 1 1 1 1 1
2 2 2 2 2 2 2 2 2 1 1 1 1 1 1 1 1 1 1 1 1 1 1 1 0 0 0 0 0 0 0 0 0 0 0 1 1 1 1 1 1 1 1
2 2 2 2 3 3 2 2 2 2 1 1 1 1 1 1 1 1 1 1 1 1 1 1 1 1 1 0 0 0 0 0 0 0 0 1 1 1 1 1 1 1 1
2 2 2 3 3 3 3 2 2 2 2 2 2 1 1 1 1 1 1 1 1 1 1 1 1 1 1 0 0 0 0 0 0 0 0 0 1 1 1 1 1 1 1
3 3 3 3 3 3 3 2 2 2 2 2 2 2 1 1 1 1 1 1 1 1 1 1 1 1 1 0 0 0 0 0 0 0 0 0 0 1 1 1 1 1 1
3 3 3 3 3 3 3 3 2 2 2 2 2 2 1 1 1 1 1 1 1 1 1 1 1 1 0 0 0 0 0 0 0 0 0 0 0 0 1 1 1 1 1
3 3 3 3 3 3 3 3 3 2 2 2 2 2 2 1 1 1 1 1 1 1 1 1 1 0 0 0 0 0 0 0 0 0 0 0 0 0 1 1 1 1 1
3 3 3 3 3 3 3 3 3 2 2 2 2 2 2 1 1 1 1 1 1 1 1 0 0 0 0 0 0 0 0 0 0 0 0 0 0 0 1 1 1 1 1
3 3 4 4 4 4 3 3 3 2 2 2 2 2 1 1 1 1 1 1 1 0 0 0 0 0 0 0 0 0 0 0 0 0 0 0 0 0 0 1 1 1 1
3 3 3 4 4 4 3 3 3 2 2 2 2 1 1 1 1 1 1 0 0 0 0 0 0 0 0 0 0 0 0 0 0 0 0 0 0 0 0 0 0 0 0
2 3 3 3 3 3 3 3 2 2 2 2 2 1 1 1 1 1 0 0 0 0 0 0 0 0 0 0 0 0 0 0 0 0 0 0 0 0 0 0 0 0 0
2 2 2 3 3 3 3 3 2 2 2 2 1 1 1 1 1 1 0 0 0 0 0 0 0 0 0 0 0 0 0 0 0 0 0 0 0 0 0 0 0 0 0
2 2 2 2 2 3 3 3 2 2 2 1 1 1 1 1 1 1 0 0 0 0 0 0 0 0 0 0 0 0 0 0 0 0 0 0 0 0 0 0 0 0 0
2 2 2 2 2 2 2 2 2 2 1 1 1 1 1 1 1 1 0 0 0 0 0 0 0 0 0 0 0 0 0 0 0 0 0 0 0 0 0 0 0 0 0
Wind_Speed
15 16 16 14 12 11 10 10 10 10 10 9 9 8 8 8 8 8 7 7 7 6 6 6 5 4 4 4 5 5 5 5 5 4 3 3 3 3 3 2 1 3 8
18 17 16 14 12 11 11 10 10 9 9 9 8 8 8 7 7 7 7 6 6 5 5 5 4 4 3 3 4 4 3 3 3 2 2 2 3 4 3 2 1 3 7
18 16 15 14 12 12 11 10 10 9 9 9 8 8 7 7 7 6 6 5 5 4 4 4 3 3 2 2 2 2 2 3 3 4 5 5 5 7 6 4 4 5 5
17 15 14 15 13 12 11 10 10 9 9 8 8 8 7 7 6 6 5 5 4 3 3 2 2 2 1 2 2 2 3 4 5 7 6 5 4 8 8 6 5 5 5
16 14 15 15 13 12 11 10 10 9 9 8 8 8 7 6 6 5 5 4 3 2 1 1 1 1 2 2 3 4 5 6 8 9 7 3 2 9 9 7 6 5 5
15 15 15 14 13 12 11 11 10 9 9 8 8 7 7 6 5 4 4 3 2 2 1 1 1 2 2 3 4 5 6 7 9 8 5 2 4 9 9 7 6 5 5
15 15 15 14 13 12 11 11 10 9 9 8 8 7 6 6 5 4 3 2 2 2 2 2 2 3 3 4 5 6 7 9 9 8 5 1 5 10 9 7 6 5 5
14 15 14 15 14 12 11 11 10 9 9 8 7 7 6 5 5 4 3 2 2 2 3 3 4 4 5 5 6 7 9 11 10 8 4 1 7 10 9 7 5 5 5
14 15 13 12 12 12 11 11 10 9 9 8 7 6 6 6 5 5 4 3 3 3 4 4 5 5 6 7 8 9 10 11 10 7 6 1 7 8 8 6 5 5 6
12 13 13 12 11 10 10 11 10 10 9 8 8 7 7 7 7 7 6 5 5 5 5 6 6 7 8 9 10 10 11 11 9 8 2 3 6 6 7 6 6 6 6
10 9 11 11 10 10 10 11 11 10 9 8 7 8 7 6 6 7 7 7 8 8 8 8 9 9 10 11 13 12 10 6 8 4 1 5 6 5 5 5 5 6 7
9 9 7 9 9 8 7 8 7 7 7 7 5 6 5 4 4 5 7 9 10 10 10 10 11 11 10 6 8 11 6 8 6 2 1 5 4 4 5 4 5 6 7
7 7 7 7 6 6 5 6 4 4 5 6 6 5 4 4 3 2 2 5 6 9 6 6 8 6 5 3 3 4 5 5 2 1 2 4 4 4 5 5 5 6 7
7 7 6 7 5 3 3 3 3 3 3 3 4 4 3 2 2 1 1 2 3 3 3 3 3 4 3 4 5 5 4 3 2 1 2 5 5 5 5 5 6 7 7
7 7 6 6 5 4 2 1 2 2 2 2 2 2 2 2 1 1 1 1 2 1 1 2 3 3 3 4 4 5 4 4 3 2 1 5 5 6 7 7 7 7 9
7 6 5 5 5 4 3 2 1 1 2 1 2 2 1 0 0 1 1 2 2 1 1 2 3 3 3 3 4 4 4 4 3 3 2 4 7 8 8 8 9 9 9
7 6 5 5 5 4 3 3 2 1 1 1 2 2 1 0 0 1 2 2 1 3 3 2 3 3 3 3 4 4 4 3 3 3 3 2 4 8 9 9 9 10 10
6 6 5 5 6 4 3 2 1 1 1 1 2 2 2 1 1 1 2 1 1 3 2 2 2 2 3 3 3 4 4 3 4 4 3 3 3 3 6 10 9 10 11
6 6 5 4 5 4 4 3 2 1 1 1 1 2 2 2 2 1 1 1 2 2 2 3 1 2 3 4 5 5 4 3 3 4 3 4 4 4 3 6 10 11 12
6 5 5 5 5 4 3 2 2 2 1 1 1 2 2 2 2 1 2 1 2 2 2 2 3 3 3 4 6 5 4 4 3 3 4 3 3 4 4 4 4 7 11
6 6 5 5 5 4 3 3 2 2 2 2 2 2 2 1 1 2 2 1 1 1 2 3 3 4 3 3 4 5 5 5 4 3 2 3 3 3 3 3 3 2 4
6 6 5 5 5 4 3 2 2 1 1 2 1 2 2 1 2 2 1 2 1 1 3 3 3 3 4 3 2 4 4 2 2 3 2 3 2 2 3 4 3 3 2
5 5 4 4 5 4 4 3 1 1 1 1 2 2 2 2 2 2 2 2 2 2 2 2 3 3 4 4 2 2 2 2 3 2 3 2 2 2 2 2 3 3 3
4 5 4 4 4 4 4 4 4 3 2 2 1 2 2 3 3 3 2 2 2 2 2 3 2 3 4 4 3 3 3 2 2 3 3 2 2 2 2 2 2 2 2
4 4 4 4 3 3 3 3 3 2 1 1 1 2 2 3 3 3 2 2 2 2 2 3 3 3 3 4 3 3 3 3 4 3 4 3 3 2 2 2 2 1 2
4 4 4 4 3 3 3 3 3 2 2 1 2 2 2 2 2 2 2 2 2 2 2 3 3 4 3 4 4 3 3 3 3 2 3 3 3 3 3 2 2 2 2
Wind_Direction
116 123 124 121 120 121 123 124 126 129 128 126 125 122 118 113 109 105 102 99 97 96 96 94 88 77 64 51 43 39 34 31 28 28 33 49 77 94 97 90 104 125 115
119 123 125 122 122 123 125 127 127 129 130 128 128 127 125 122 121 118 113 108 105 102 99 95 87 77 67 56 45 35 23 13 357 339 307 245 193 165 152 133 60 112 129
118 124 126 124 124 126 127 128 129 129 130 130 131 132 131 128 127 124 121 118 113 106 99 93 85 73 59 47 34 15 352 326 305 291 274 250 197 175 168 152 126 134 142
122 131 127 128 128 130 128 128 130 132 133 134 135 135 136 134 132 129 128 125 119 110 100 91 77 55 27 7 356 339 319 302 292 285 266 249 200 162 161 158 152 156 160
120 122 125 132 131 132 132 133 135 138 140 140 141 139 139 138 137 137 139 136 134 129 120 100 58 360 336 328 320 313 306 296 292 281 270 258 148 149 154 160 167 176 182
126 126 130 133 133 136 138 140 140 141 143 145 147 146 146 146 145 146 149 154 158 166 192 241 287 302 306 307 304 299 296 293 290 278 270 234 144 150 151 159 170 181 192
133 128 134 136 137 140 143 143 144 144 145 149 153 154 155 154 153 155 163 175 187 207 234 258 278 287 286 289 291 290 291 291 280 279 280 237 141 147 155 162 173 187 201
132 129 135 142 143 144 147 147 147 148 150 155 159 159 161 163 161 166 174 194 215 246 263 272 279 278 275 275 277 280 282 284 283 283 282 184 143 150 156 161 174 193 210
130 130 143 147 149 150 151 152 152 153 155 158 160 164 167 171 175 184 191 208 232 247 261 269 273 275 272 269 268 269 272 275 280 276 274 135 139 146 156 170 184 202 217
135 140 148 150 154 158 158 160 160 160 160 164 168 175 186 193 200 206 202 203 223 237 246 255 262 265 266 264 262 262 266 274 264 263 254 136 142 155 164 179 193 209 224
132 139 148 149 157 167 165 161 165 168 171 175 184 194 205 213 207 205 206 198 215 227 237 245 253 257 260 257 253 254 260 256 261 254 211 150 156 162 174 188 202 215 227
148 148 147 147 157 169 165 153 173 179 174 190 189 192 207 221 225 214 183 203 216 228 237 241 249 257 255 252 242 237 246 252 261 259 169 155 159 171 186 199 211 221 228
155 147 146 149 155 160 148 158 174 178 168 190 192 193 209 222 223 208 183 196 217 230 234 237 242 244 251 262 267 243 247 266 271 265 157 163 176 192 206 215 222 229 232
152 154 156 149 146 148 145 162 174 173 168 185 174 194 208 221 233 215 223 217 221 222 221 240 245 243 260 266 263 265 265 264 276 250 177 179 182 197 214 222 228 236 238
155 162 156 147 139 134 134 178 159 159 162 173 158 170 230 224 229 242 253 256 267 270 246 252 270 279 273 273 278 282 294 290 282 286 184 192 198 205 215 224 231 236 241
154 154 155 147 134 137 146 163 161 161 157 172 139 148 238 248 150 267 246 259 271 288 281 273 282 279 271 273 275 280 280 282 281 281 260 211 215 216 219 225 229 234 241
148 146 147 146 138 148 162 187 172 179 172 153 128 145 150 168 246 275 260 240 286 283 265 255 273 275 270 273 274 275 267 262 267 269 265 244 225 224 224 228 230 233 238
144 145 152 162 150 156 160 179 173 180 161 153 154 151 156 195 226 270 277 278 281 276 276 272 265 294 293 290 290 282 275 260 250 250 249 248 244 244 228 230 233 235 238
133 142 150 149 150 162 166 170 178 159 173 183 164 151 163 197 225 243 284 282 277 279 288 294 322 299 290 288 281 263 262 262 254 259 249 246 241 241 234 230 230 237 239
141 142 154 154 153 159 163 167 182 181 190 183 155 150 163 213 237 241 253 259 291 293 300 304 296 272 272 279 284 285 273 264 250 248 249 251 243 243 239 243 230 237 239
150 153 156 162 158 163 170 181 189 195 199 181 185 168 178 220 259 270 269 271 266 272 292 290 285 283 277 277 287 287 266 250 246 241 235 247 251 257 246 231 225 235 240
156 157 161 166 166 170 164 170 196 193 201 178 163 150 180 205 246 249 252 266 261 276 277 280 289 292 293 288 289 298 291 273 288 266 240 242 252 259 258 253 233 226 241
147 152 166 162 161 167 163 168 184 188 213 186 173 174 187 205 229 260 244 259 274 260 272 289 286 281 283 285 260 271 296 304 315 289 285 279 263 259 264 266 247 225 234
137 137 144 152 160 167 172 177 194 205 207 202 187 170 191 219 222 230 240 250 268 270 271 274 273 282 280 284 278 253 252 274 280 297 299 298 285 272 261 266 271 253 237
131 129 135 148 153 164 178 175 192 214 209 191 182 183 208 217 217 226 228 244 256 263 265 282 289 276 275 279 285 288 279 271 251 265 291 302 303 296 278 262 258 251 253
116 113 118 131 140 160 181 177 196 205 208 205 220 222 233 233 229 232 235 243 263 267 262 261 271 276 276 280 285 286 282 279 276 269 275 289 293 287 275 265 260 242 235